Temp
2 2 3 3 4 3 3 3 3 3 3 4 4 4 3 4 4 4 5 4 4 4 3 3 3 3 3 3 3 3 3 3 3 3 3 3 3 3 2 3 2 2 2
2 3 3 4 4 4 4 3 3 3 3 3 4 4 3 4 4 4 5 4 3 3 3 3 2 2 2 2 2 3 3 3 3 2 3 3 3 2 2 2 2 2 2
2 2 3 3 3 3 3 2 2 2 3 3 3 3 3 3 4 4 4 3 3 3 2 2 2 2 2 2 2 2 2 2 2 2 2 2 3 2 2 2 2 2 1
1 3 3 3 3 3 2 2 2 3 3 2 3 3 3 3 3 3 3 3 2 2 2 2 2 2 1 2 2 2 2 2 2 2 2 2 2 2 2 1 1 1 1
2 2 3 3 3 3 2 2 3 3 3 2 2 3 3 3 3 2 2 2 2 2 2 1 1 1 1 1 1 2 2 2 2 2 1 1 2 1 1 1 1 1 1
2 3 2 3 3 3 3 3 2 2 2 2 2 2 3 3 2 2 1 1 1 1 2 2 1 1 1 1 1 1 1 1 1 1 1 1 1 0 0 1 1 1 0
2 2 2 2 2 3 3 3 2 2 2 1 1 1 2 2 2 2 2 2 1 1 1 1 1 1 1 1 1 1 1 1 1 0 1 0 0 0 0 0 1 0 -0
3 2 2 2 2 2 1 2 2 3 1 1 1 1 2 2 2 1 1 1 0 0 0 0 0 0 0 0 0 0 0 0 0 -0 0 0 -0 -0 -0 -1 -1 -1 -1
3 2 2 2 2 2 1 2 2 2 2 2 1 1 1 1 1 0 0 0 0 0 0 0 0 -0 -0 -0 -0 0 0 0 -0 -0 -0 -0 -0 -0 -1 -1 -1 -1 -1
2 2 2 2 2 1 1 1 2 2 1 1 1 1 0 -0 -1 -1 -1 -0 -0 -0 -0 -0 0 0 0 0 0 0 -0 -1 -0 -1 -1 -1 -1 -1 -1 -1 -2 -2 -1
2 2 2 1 2 1 1 1 1 1 0 1 -0 0 0 -1 -2 -1 -2 -2 -1 -1 -1 -0 -0 0 0 0 0 -0 -1 -1 -1 -1 -1 -1 -1 -1 -1 -1 -2 -2 -1
2 2 2 2 2 2 1 0 0 0 -0 -0 -0 -1 -1 -2 -2 -1 -2 -2 -2 -2 -2 -1 -1 -0 -0 -0 -0 -0 -1 -1 -1 -1 -1 -1 -1 -2 -1 -2 -1 -2 -2
1 1 2 2 2 1 1 0 0 1 0 -0 -0 -0 -1 -1 -1 -1 -2 -1 -2 -2 -1 -1 -1 -0 -0 -1 -1 -1 -1 -1 -1 -1 -1 -1 -1 -1 -2 -2 -2 -2 -1
2 2 2 2 2 1 1 0 0 0 -0 -1 -1 -1 -1 -1 -1 -2 -2 -2 -2 -1 -1 0 -0 0 -0 -1 -1 -1 -1 -1 -1 -1 -0 -0 -1 -1 -1 -1 -1 -2 -2
2 1 1 2 2 2 1 0 -0 -0 -0 -0 -0 -1 -1 -1 -1 -1 -1 -1 -1 -1 -1 1 1 0 -0 -1 -1 -1 -1 -1 -1 -1 -1 -1 -2 -1 -1 -2 -2 -2 -1
1 1 1 1 0 1 1 1 0 -1 -1 -0 -1 -1 -1 -1 -1 -1 -1 -1 -1 -1 -1 -0 1 1 0 -0 -0 -1 -1 -1 -1 -1 -1 -1 -1 -1 -1 -1 -2 -2 -2
2 1 1 2 1 1 0 -0 -1 -0 -0 -1 -1 -1 -1 -1 -1 -1 -1 -1 -1 -1 -1 1 0 0 0 -0 -0 -0 -0 -1 -1 -1 -2 -1 -1 -2 -1 -1 -2 -2 -2
2 1 1 2 1 1 0 -0 -0 -1 -1 -1 -1 -1 -1 -1 -1 -1 -1 -1 -1 -0 -1 -1 -1 -0 -0 -1 -1 -0 -1 -1 -2 -1 -1 -1 -1 -2 -1 -1 -2 -2 -3
2 2 1 1 1 1 0 0 -1 -1 -0 -1 -1 -1 -1 -2 -2 -1 -1 -0 -0 -0 -0 -1 -1 -1 -1 -2 -1 -2 -1 -1 -1 -1 -2 -2 -1 -1 -1 -1 -1 -1 -2
3 3 2 2 2 1 1 0 -1 -1 -1 -1 -1 -2 -2 -1 0 -0 0 -0 -0 -0 -0 0 -1 -1 -1 -1 -2 -2 -2 -3 -2 -2 -2 -1 -2 -2 -3 -3 -3 -4 -4
3 3 3 2 2 2 2 1 1 0 0 -0 0 0 0 0 -0 -1 -1 -1 -0 -1 -0 -1 -1 -1 -1 -2 -2 -2 -1 -3 -3 -2 -2 -3 -3 -3 -4 -4 -4 -5 -5
3 3 3 3 3 3 2 2 1 1 0 0 0 0 -0 -1 -1 0 -0 0 -1 -1 -1 -1 -1 -2 -2 -2 -0 -2 -2 -3 -2 -3 -2 -3 -4 -4 -5 -5 -6 -6 -7
3 3 3 3 3 3 2 2 1 1 0 -1 -1 -1 -1 -1 -1 -0 -1 -0 -1 -1 -1 -2 -1 -2 -2 -2 -3 -3 -3 -4 -3 -3 -3 -3 -4 -5 -6 -7 -8 -8 -8
3 3 3 3 3 3 3 2 1 0 0 -0 -0 0 -0 -1 -1 -1 -1 -1 -2 -2 -2 -3 -3 -3 -3 -4 -4 -4 -4 -4 -5 -5 -4 -5 -5 -6 -7 -8 -10 -10 -11
4 4 4 4 3 3 2 1 -1 -1 -0 -1 -0 -1 -1 -1 -1 -1 -2 -3 -3 -4 -3 -3 -4 -5 -5 -5 -5 -6 -6 -6 -7 -8 -8 -8 -8 -8 -9 -10 -11 -12 -13
4 4 3 3 1 0 0 0 -1 -1 -1 -0 -0 -0 -1 -1 -2 -3 -3 -4 -5 -4 -4 -5 -5 -6 -6 -7 -7 -8 -8 -8 -9 -10 -11 -11 -12 -12 -11 -12 -14 -15 -15
Height
3089 3095 3100 3108 3114 3118 3123 3128 3133 3138 3140 3143 3148 3151 3152 3153 3156 3155 3156 3158 3159 3162 3163 3164 3163 3165 3164 3165 3166 3167 3167 3167 3168 3168 3169 3169 3170 3169 3169 3169 3170 3169 3169
3082 3091 3097 3106 3112 3117 3123 3127 3133 3136 3140 3140 3146 3149 3150 3153 3154 3155 3158 3157 3158 3160 3161 3161 3162 3162 3163 3164 3166 3167 3167 3167 3167 3167 3167 3168 3168 3168 3168 3167 3167 3167 3167
3078 3088 3096 3103 3109 3114 3121 3126 3130 3133 3138 3138 3144 3147 3150 3151 3151 3155 3156 3156 3157 3157 3158 3159 3160 3160 3161 3163 3165 3165 3165 3165 3165 3165 3166 3166 3166 3166 3165 3164 3164 3164 3163
3076 3085 3093 3100 3106 3112 3117 3122 3127 3131 3136 3137 3142 3146 3148 3150 3150 3154 3154 3155 3155 3156 3156 3157 3157 3158 3159 3161 3162 3162 3162 3163 3163 3164 3164 3164 3165 3163 3162 3162 3161 3160 3159
3075 3084 3090 3098 3104 3109 3115 3120 3124 3129 3134 3135 3139 3143 3146 3148 3149 3150 3152 3153 3152 3153 3154 3155 3154 3156 3158 3158 3159 3160 3161 3161 3161 3161 3162 3162 3162 3160 3159 3159 3158 3157 3156
3075 3082 3089 3095 3101 3106 3112 3117 3122 3126 3132 3135 3135 3139 3143 3145 3148 3148 3149 3150 3150 3150 3152 3152 3153 3154 3155 3156 3157 3158 3158 3158 3158 3158 3158 3159 3158 3157 3156 3155 3154 3152 3151
3072 3079 3086 3091 3097 3102 3108 3114 3118 3122 3126 3130 3132 3133 3138 3141 3144 3145 3146 3148 3149 3149 3149 3150 3151 3151 3152 3153 3154 3155 3155 3154 3155 3154 3155 3155 3154 3153 3151 3150 3148 3146 3145
3070 3076 3082 3088 3093 3098 3103 3108 3114 3118 3121 3125 3128 3132 3133 3137 3139 3142 3144 3146 3146 3147 3147 3147 3148 3149 3150 3151 3152 3151 3151 3151 3150 3150 3150 3149 3148 3146 3145 3142 3140 3139 3137
3067 3073 3078 3083 3089 3093 3097 3103 3109 3112 3117 3120 3124 3127 3129 3132 3135 3137 3139 3142 3142 3144 3145 3145 3145 3146 3147 3147 3147 3147 3147 3147 3146 3145 3144 3141 3140 3138 3136 3134 3134 3132 3130
3062 3068 3072 3076 3081 3089 3093 3097 3103 3107 3111 3115 3118 3122 3125 3129 3129 3133 3136 3136 3137 3138 3140 3141 3142 3142 3143 3142 3143 3143 3142 3141 3140 3138 3136 3133 3131 3129 3128 3126 3124 3123 3122
3055 3060 3065 3069 3074 3081 3089 3092 3096 3100 3105 3109 3113 3116 3119 3120 3124 3128 3131 3133 3132 3133 3133 3134 3135 3136 3137 3137 3137 3136 3136 3135 3132 3130 3127 3125 3123 3121 3118 3116 3114 3113 3112
3044 3052 3057 3064 3069 3076 3082 3086 3091 3095 3098 3103 3107 3110 3112 3116 3120 3122 3125 3126 3126 3128 3128 3128 3128 3128 3129 3130 3130 3129 3128 3125 3122 3121 3119 3117 3114 3111 3108 3106 3104 3103 3101
3037 3043 3052 3057 3064 3070 3076 3080 3085 3089 3092 3095 3099 3103 3107 3112 3115 3116 3118 3120 3118 3120 3120 3121 3122 3124 3123 3123 3121 3120 3119 3117 3115 3113 3110 3107 3105 3101 3098 3095 3093 3093 3091
3032 3038 3048 3053 3060 3065 3071 3076 3080 3083 3086 3091 3095 3098 3103 3106 3110 3112 3112 3112 3111 3110 3110 3112 3115 3116 3116 3115 3113 3112 3109 3107 3105 3102 3100 3098 3094 3091 3088 3086 3083 3082 3080
3033 3037 3044 3047 3055 3062 3069 3071 3075 3080 3083 3087 3091 3095 3099 3102 3103 3105 3106 3106 3106 3103 3102 3105 3105 3108 3108 3105 3104 3102 3099 3096 3092 3091 3089 3086 3084 3081 3078 3075 3072 3069 3066
3030 3033 3040 3046 3052 3058 3062 3066 3072 3076 3078 3083 3086 3091 3094 3096 3098 3099 3100 3100 3099 3097 3093 3098 3098 3099 3098 3095 3094 3090 3088 3085 3082 3081 3077 3075 3071 3068 3065 3062 3059 3055 3052
3030 3034 3038 3042 3049 3052 3062 3066 3067 3071 3074 3079 3082 3086 3089 3091 3092 3093 3093 3093 3092 3090 3085 3089 3089 3090 3086 3083 3080 3077 3075 3072 3071 3068 3065 3061 3058 3054 3051 3047 3043 3040 3036
3032 3036 3040 3043 3051 3057 3061 3063 3066 3068 3072 3076 3080 3082 3085 3085 3085 3085 3084 3084 3084 3084 3080 3077 3078 3076 3074 3071 3070 3066 3065 3060 3058 3054 3052 3047 3043 3041 3037 3033 3028 3024 3020
3032 3035 3039 3044 3049 3054 3057 3060 3063 3067 3069 3072 3075 3076 3076 3076 3077 3076 3076 3076 3075 3075 3072 3069 3067 3065 3063 3059 3059 3056 3053 3047 3044 3039 3036 3031 3026 3023 3019 3014 3010 3007 3003
3033 3036 3040 3044 3048 3051 3054 3056 3060 3062 3065 3066 3067 3068 3069 3069 3069 3069 3069 3068 3067 3065 3064 3061 3057 3054 3052 3048 3044 3042 3039 3034 3030 3026 3021 3014 3009 3004 3000 2995 2992 2987 2982
3034 3037 3040 3043 3045 3047 3049 3052 3055 3057 3059 3060 3061 3061 3062 3063 3062 3061 3060 3059 3057 3056 3052 3051 3046 3044 3040 3037 3032 3027 3021 3018 3015 3008 3003 2998 2993 2986 2981 2977 2972 2967 2963
3030 3033 3036 3038 3040 3042 3046 3048 3050 3052 3053 3054 3055 3055 3055 3055 3053 3051 3049 3049 3048 3043 3042 3038 3033 3030 3027 3024 3019 3013 3007 3002 2996 2991 2986 2982 2975 2970 2964 2958 2953 2948 2941
3025 3027 3031 3033 3036 3038 3040 3043 3045 3046 3047 3048 3049 3048 3046 3045 3043 3041 3040 3037 3034 3032 3028 3025 3023 3019 3014 3009 3006 3000 2992 2985 2978 2971 2966 2961 2956 2951 2946 2941 2935 2926 2922
3022 3025 3027 3030 3031 3033 3035 3037 3039 3040 3040 3041 3040 3038 3038 3035 3031 3030 3027 3027 3021 3020 3017 3013 3010 3005 3001 2996 2989 2983 2977 2971 2965 2957 2948 2942 2936 2929 2925 2920 2915 2907 2902
3016 3019 3021 3023 3026 3028 3029 3031 3032 3032 3034 3034 3032 3030 3027 3023 3018 3020 3017 3014 3011 3008 3004 3000 2996 2993 2987 2981 2975 2968 2962 2955 2948 2942 2934 2926 2917 2910 2905 2899 2892 2888 2883
3011 3013 3015 3017 3019 3020 3022 3024 3024 3025 3024 3023 3021 3019 3015 3014 3011 3010 3007 3005 3002 2998 2994 2989 2985 2979 2974 2967 2961 2954 2946 2938 2931 2923 2917 2906 2900 2892 2885 2880 2875 2867 2861
Wind_Speed
45 41 42 37 35 33 31 28 31 28 23 21 16 15 14 13 13 10 7 7 8 10 11 12 9 9 6 5 3 2 2 2 5 6 5 4 7 8 8 8 8 8 10
48 47 43 38 35 33 32 32 32 27 24 21 17 16 14 13 9 5 6 7 8 10 12 12 12 9 7 6 6 5 5 4 6 6 7 9 10 10 10 9 10 11 13
51 43 40 39 36 35 34 34 34 30 25 22 17 16 15 12 10 6 6 7 8 9 11 11 11 10 9 9 7 7 7 7 8 7 9 10 11 11 10 10 12 14 16
49 44 39 37 36 36 36 36 34 30 27 23 20 18 16 14 10 8 6 7 8 8 10 11 10 10 9 10 9 9 8 8 7 7 9 11 11 12 13 15 16 18 20
43 39 41 36 35 36 37 37 35 31 27 25 23 20 18 16 11 9 8 6 5 6 8 8 8 9 9 9 9 9 9 8 8 8 10 13 16 17 18 20 21 22 22
39 36 36 35 34 36 38 38 36 33 28 26 24 22 22 19 16 11 8 6 6 6 7 8 8 8 8 8 9 9 10 11 11 12 14 17 20 21 23 22 22 26 26
43 38 36 33 38 35 36 37 37 35 32 31 29 27 25 22 18 13 10 11 9 9 8 8 8 9 9 10 11 12 13 13 14 15 18 22 24 24 25 28 31 31 30
37 40 38 38 37 34 41 40 39 38 36 34 32 29 28 25 18 14 13 15 12 9 8 8 8 9 10 11 12 13 14 16 16 19 22 24 24 26 27 30 30 32 31
36 39 37 41 42 39 38 42 41 40 37 37 35 33 31 27 18 16 13 13 12 11 11 11 11 12 13 15 14 16 17 20 22 27 29 30 30 32 36 33 30 33 37
42 41 37 44 46 43 43 42 43 42 40 39 36 34 31 22 23 22 16 12 14 13 14 13 16 17 17 17 18 18 21 23 26 28 30 34 36 38 40 41 37 34 39
49 48 42 36 46 47 45 43 44 45 44 38 37 38 35 32 26 25 18 16 18 17 19 20 21 21 21 20 23 24 26 28 32 34 35 33 36 39 37 42 42 41 38
53 51 46 37 48 46 48 43 50 46 36 39 37 39 35 37 31 30 22 22 25 24 24 25 25 25 23 24 27 30 32 35 34 31 30 30 35 32 34 36 41 41 41
44 55 46 47 47 47 45 40 48 40 42 39 38 36 37 31 29 21 29 25 27 28 32 28 30 28 27 29 32 34 36 36 34 34 36 36 39 37 34 36 39 43 44
43 33 47 48 47 41 43 40 42 52 49 43 45 39 38 38 29 30 30 32 31 31 28 26 27 32 33 33 36 37 35 38 40 39 39 38 36 36 37 37 36 39 40
33 34 37 55 40 40 35 24 45 43 46 38 41 40 31 23 24 25 29 29 31 37 31 24 29 28 32 35 34 36 38 43 39 34 37 42 44 41 45 44 44 43 47
9 18 32 40 46 41 42 26 39 34 33 29 24 35 30 25 23 26 30 34 37 38 39 28 28 29 32 35 36 39 42 46 39 36 46 45 46 41 45 44 47 52 50
14 16 19 36 40 32 38 24 20 19 20 19 20 21 21 24 26 28 28 32 36 37 40 34 34 33 36 39 42 42 35 40 40 46 49 48 47 53 53 52 53 55 53
16 16 16 20 28 25 19 22 20 13 16 17 20 23 23 23 27 30 33 34 34 33 37 40 39 39 35 41 46 48 38 44 53 47 58 52 54 56 56 56 56 57 58
15 17 17 22 24 25 23 23 20 20 19 19 22 24 25 28 29 32 32 33 34 35 38 40 44 42 45 50 46 46 47 52 53 57 58 60 60 56 56 57 58 59 59
13 15 16 17 20 21 20 20 22 22 21 26 27 26 27 28 29 31 34 37 38 39 41 44 48 48 53 49 50 54 51 54 57 55 61 61 55 55 56 57 58 57 55
15 16 16 18 18 19 20 20 21 23 25 24 24 28 28 28 32 36 36 36 39 40 48 47 50 49 50 52 56 54 62 58 57 62 60 58 58 59 59 57 57 57 57
19 19 19 19 19 19 19 19 20 23 25 27 28 30 32 32 32 40 49 44 43 44 51 55 47 48 47 57 58 58 58 60 61 61 61 58 57 58 59 59 60 61 62
20 20 19 19 19 20 21 23 25 26 27 27 32 32 32 39 41 45 44 54 56 52 53 43 50 48 54 55 55 56 57 57 59 62 63 64 63 63 62 61 61 65 64
21 21 21 23 24 24 23 24 26 29 29 28 32 35 44 46 45 48 52 56 37 37 48 47 46 48 50 51 52 54 55 57 59 60 66 68 68 69 68 64 61 63 64
23 24 25 26 26 27 28 28 26 26 33 37 41 42 43 56 52 46 44 35 41 42 44 44 44 45 47 50 52 54 55 58 60 58 61 62 65 68 66 65 63 59 57
28 29 30 29 27 27 28 31 33 30 32 32 39 46 52 45 41 34 40 37 35 39 41 42 45 47 49 50 53 55 57 59 59 60 57 61 60 61 65 62 58 56 55
Wind_Direction
199 185 179 186 187 186 188 185 187 191 192 202 173 177 170 174 175 163 165 181 189 207 210 206 200 210 200 222 240 246 220 141 162 181 208 271 311 327 333 330 325 320 314
186 181 180 184 185 185 185 184 188 191 195 203 180 181 169 170 165 167 225 202 191 204 208 212 214 220 227 241 253 261 268 262 241 243 274 284 300 306 311 318 321 321 316
190 178 180 186 185 184 186 188 192 191 196 203 189 184 182 181 169 209 223 203 201 208 212 217 222 231 243 254 263 269 270 262 267 283 282 289 291 291 302 311 313 310 310
194 180 185 189 188 187 188 192 196 195 197 203 202 191 191 196 184 206 206 211 202 213 223 230 233 242 253 258 261 264 266 269 278 286 287 283 283 293 299 299 300 302 305
180 180 187 188 188 191 194 196 198 201 200 203 207 200 202 206 197 192 200 215 212 220 233 243 245 249 249 253 258 261 265 278 277 281 284 287 291 294 298 297 300 300 299
181 182 185 189 192 196 198 201 201 203 202 209 215 207 208 206 204 198 205 216 229 239 238 244 245 244 247 252 256 262 270 274 280 282 289 293 295 298 300 296 298 300 299
183 184 190 191 197 199 203 204 205 206 205 209 211 215 212 210 209 212 220 243 219 217 233 236 236 241 245 251 256 261 268 280 284 292 297 299 295 300 300 295 295 300 298
198 195 196 196 201 205 204 209 210 209 206 213 214 214 221 220 216 224 226 233 228 216 226 237 237 244 252 263 269 272 278 284 291 297 293 296 300 298 303 306 297 298 299
207 206 211 208 206 208 214 208 210 212 212 215 216 220 217 218 223 235 245 240 242 242 239 244 241 247 254 262 269 278 286 287 291 292 291 293 299 298 298 299 300 299 295
205 211 219 213 207 211 212 215 211 216 215 220 218 220 218 219 217 228 244 259 272 276 263 254 256 261 267 276 281 284 288 289 293 295 297 293 295 297 295 292 291 293 295
214 213 214 223 213 211 214 218 214 216 215 218 221 224 219 220 230 247 242 250 261 280 277 271 269 270 275 287 289 292 295 294 294 296 297 294 293 289 296 289 283 286 285
216 212 216 221 215 209 213 216 214 215 222 217 225 225 223 236 235 242 243 259 274 274 275 272 271 276 284 287 293 296 293 302 295 290 291 287 291 293 288 287 283 283 281
217 212 212 223 208 213 213 213 221 217 223 230 217 219 234 233 243 240 251 267 275 277 271 268 267 271 280 285 290 292 294 291 284 288 283 286 290 285 286 284 278 275 280
218 215 212 216 212 217 217 220 215 226 235 233 232 229 236 247 248 251 261 277 293 300 286 271 265 266 271 280 286 286 292 291 291 291 285 287 289 286 287 286 279 278 282
208 210 214 214 219 227 219 239 230 240 243 246 232 232 244 243 244 255 267 280 284 289 281 272 271 269 274 281 288 290 289 291 291 284 298 290 294 282 288 283 280 285 281
206 190 212 215 225 225 235 235 236 242 238 229 237 239 236 245 254 260 268 276 279 281 283 280 280 281 283 287 284 283 286 287 279 279 298 289 290 289 289 282 277 281 281
197 199 205 220 223 230 230 223 215 218 226 225 233 235 241 250 257 263 270 273 273 276 278 285 286 286 286 283 285 289 291 293 289 290 289 281 289 284 289 279 281 278 283
194 188 180 205 205 201 208 203 200 198 222 233 234 245 250 257 257 260 265 268 271 274 281 287 286 285 287 290 292 289 279 275 291 286 294 289 293 290 283 279 279 273 273
183 188 190 198 206 204 212 199 202 208 224 229 235 241 251 255 259 266 270 275 277 277 277 281 286 289 293 287 289 282 289 285 286 296 293 294 293 290 286 284 284 282 278
167 174 178 182 189 196 203 205 209 215 223 228 233 242 252 262 267 272 273 274 274 275 279 284 290 288 283 284 291 287 289 291 289 289 292 291 291 290 287 285 285 285 284
179 181 183 185 190 196 204 211 217 220 227 236 251 254 259 262 268 266 268 276 282 285 281 280 281 291 285 281 291 287 294 293 289 292 292 292 293 290 288 287 286 284 282
199 200 202 203 205 214 216 222 229 237 242 246 250 256 259 265 280 281 274 274 273 280 277 280 283 287 285 295 291 289 293 292 292 291 292 291 289 289 289 287 286 284 282
216 219 220 228 232 236 233 231 235 242 250 258 259 267 272 275 273 276 277 274 285 277 282 282 290 279 294 293 289 289 292 294 294 294 293 293 292 291 289 288 287 285 283
224 226 226 228 231 235 241 246 249 252 256 264 270 264 267 269 269 266 272 280 281 282 295 294 291 292 291 291 292 293 294 293 293 295 294 295 294 293 293 291 288 287 287
224 227 230 233 236 241 245 248 255 256 255 255 257 264 270 265 270 273 276 282 297 296 296 297 296 295 294 296 297 297 297 296 295 295 294 294 294 295 295 294 293 291 287
230 235 238 242 248 255 258 259 257 259 261 265 262 265 266 264 265 274 294 296 296 300 300 300 300 301 301 301 300 300 301 301 301 301 302 300 300 299 297 296 297 296 293